Regional Weather Roundup
Issued by NWS

Home | Current Version | Previous Version | Text Only | Print | Product List | Glossary Off
Versions: 1 2 3 4 5 6 7 8 9 10 11 12 13 14 15 16 17 18 19 20 21 22 23 24 25 26 27 28 29 30 31 32 33 34 35 36 37 38 39 40 41 42 43 44 45 46 47 48 49 50

717
ASUS45 KBOI 260810
RWRID

IDAHO REGIONAL WEATHER ROUNDUP
NATIONAL WEATHER SERVICE BOISE ID
200 AM MDT THU MAY 26 2016

NOTE: "FAIR" INDICATES FEW OR NO CLOUDS BELOW 12000 FEET
WITH NO SIGNIFICANT WEATHER AND/OR OBSTRUCTIONS TO VISIBILITY

IDZ012-014-260900-
SOUTHWEST IDAHO


CITY           SKY/WX    TMP DP  RH WIND       PRES   REMARKS
BOISE          CLEAR     53  43  68 S9        30.00R
CALDWELL       CLEAR     53  43  68 W9        30.01R
MOUNTAIN HOME  MOCLDY    57  46  66 W5        30.00S
$$

IDZ016-017-260900-
SOUTHCENTRAL IDAHO


CITY           SKY/WX    TMP DP  RH WIND       PRES   REMARKS
BURLEY         CLEAR     47  39  74 SW9       30.03S
JEROME         CLEAR     50  40  68 S8        30.04S
TWIN FALLS     CLEAR     49  38  65 S13       30.04S
$$

IDZ019>023-260900-
SOUTHEAST IDAHO


CITY           SKY/WX    TMP DP  RH WIND       PRES   REMARKS
IDAHO FALLS    CLOUDY    40  38  93 NW3       30.05F
POCATELLO      CLEAR     44  40  85 CALM      30.05S
REXBURG        CLOUDY    42  39  89 CALM      30.06S
$$

IDZ006-010-011-018-031-032-260900-
CENTRAL IDAHO MOUNTAINS


CITY           SKY/WX    TMP DP  RH WIND       PRES   REMARKS
MCCALL         CLEAR     43  37  79 N3        30.07S
HAILEY         CLEAR     43  37  81 NW12      30.10S
STANLEY          N/A     31  28  89 CALM      30.12S
SALMON         CLEAR     46  36  66 SE6       30.04R
CHALLIS        CLEAR     44  35  70 S5        30.07R
$$

IDZ002-004-006-007-026-260900-
NORTHERN IDAHO


CITY           SKY/WX    TMP DP  RH WIND       PRES   REMARKS
LEWISTON       CLEAR     56  47  71 S7        30.01S
LOWELL           N/A     50  48  93 N3        30.07S
COEUR D`ALENE  CLOUDY    59  46  63 S6        29.98S
MULLAN PASS    PTCLDY    42  40  92 NW5       30.08F
$$




USA.gov is the U.S. government's official web portal to all federal, state and local government web resources and services.